DW4395 Weather Reports


time (UTC)temp
F
wind
direction
speed
knots
gust
knots
rain 1hr
in
rain 24hr
in
rain mn
in
humidity
%
barometer
mb
20260504205521 59 0.0 0.0 0.00 0.31 0.14 99 1019.1
20260504204521 59 0.0 0.0 0.00 0.31 0.14 98 1018.8
20260504203702 59 0.0 0.0 0.00 0.31 0.14 98 1018.7
20260504202521 59 0.0 0.0 0.00 0.31 0.14 98 1018.6
20260504201521 60 0.0 0.0 0.00 0.31 0.14 98 1018.7
20260504200520 60 0.0 0.0 0.00 0.31 0.14 98 1018.6
20260504195702 61 0.0 0.0 0.00 0.31 0.14 98 1018.3
20260504194520 62 0.0 0.0 0.00 0.31 0.14 98 1018.5
20260504193522 62 0.0 0.0 0.00 0.31 0.14 99 1018.3
20260504192521 62 0.0 0.0 0.00 0.31 0.14 98 1018.3
20260504191522 62 0.0 0.0 0.00 0.31 0.14 99 1018.3
20260504190522 62 0.0 0.0 0.00 0.31 0.14 99 1018.2
20260504185521 62 0.0 0.0 0.00 0.31 0.14 98 1018.4
20260504184521 62 0.0 0.0 0.00 0.31 0.14 98 1018.3
20260504183701 62 0.0 0.0 0.00 0.31 0.14 98 1018.3
20260504182522 62 0.0 0.0 0.00 0.31 0.14 98 1018.2
20260504181842 62 0.0 0.0 0.00 0.31 0.14 98 1018.1
20260504180701 62 0.0 0.0 0.00 0.31 0.14 98 1018.1
20260504175521 62 0.0 0.0 0.00 0.31 0.14 98 1018.0
20260504174521 62 0.0 0.0 0.00 0.31 0.14 98 1017.8
20260504173522 62 0.0 0.0 0.00 0.31 0.14 98 1017.7
20260504172521 62 0.0 0.0 0.00 0.31 0.14 98 1017.8
20260504171701 62 0.0 0.0 0.00 0.31 0.14 98 1017.7
20260504170521 62 0.0 0.0 0.00 0.31 0.14 98 1017.6
20260504150521 63 0.0 0.0 0.03 0.20 0.03 97 1018.7
20260504140520 62 0.0 0.0 0.00 0.17 0.00 97 1017.9
20260504130701 63 0.0 0.0 0.01 0.17 0.17 97 1017.7
20260504110521 63 0.0 0.0 0.00 0.16 0.16 96 1018.1
20260504100521 63 0.0 0.0 0.03 0.16 0.16 95 1018.1
20260504081522 65 0.0 0.0 0.02 0.12 0.12 93 1017.4
20260504080523 65 0.0 0.0 0.03 0.12 0.12 93 1017.4
20260504050522 70 0.0 0.0 0.02 0.02 0.02 84 1016.7
20260504045523 70 0.0 0.0 0.02 0.02 0.02 82 1016.6
20260504044705 70 0.0 0.0 0.01 0.01 0.01 79 1016.7
20260504043522 70 0.0 0.0 0.00 0.00 0.00 78 1016.7
20260504042703 70 0.0 0.0 0.00 0.00 0.00 78 1016.7
20260504041521 71 0.0 0.9 0.00 0.00 0.00 77 1016.7
20260504040520 71 0.0 0.0 0.00 0.00 0.00 77 1016.8
20260504035701 71 0.0 0.9 0.00 0.00 0.00 75 1016.8
20260504034522 73 0.0 0.9 0.00 0.00 0.00 74 1016.9
20260504033522 74 0.0 0.9 0.00 0.00 0.00 72 1017.2
20260504032524 75 0.0 0.0 0.00 0.00 0.00 70 1017.4
20260504031522 75 0.0 0.9 0.00 0.00 0.00 65 1017.6
20260504030522 76 0.0 0.9 0.00 0.00 0.00 64 1017.5
20260504025702 76 0.0 0.9 0.00 0.00 0.00 63 1017.6
20260504024522 77 0.0 0.9 0.00 0.00 0.00 62 1017.7
20260504023521 78 0.0 0.9 0.00 0.00 0.00 59 1017.8
20260504022522 80 0.0 1.7 0.00 0.00 0.00 57 1017.9
20260504021522 80 0.0 0.9 0.00 0.00 0.00 55 1017.9
20260504020522 81 0.0 1.7 0.00 0.00 0.00 55 1018.0
20260504015520 80 0.0 1.7 0.00 0.00 0.00 54 1018.2
20260504014521 80 0.0 0.9 0.00 0.00 0.00 53 1018.2
20260504013522 80 0.0 0.9 0.00 0.00 0.00 53 1018.4
20260504012521 81 0.0 0.9 0.00 0.00 0.00 52 1018.4
20260504011521 81 0.0 0.9 0.00 0.00 0.00 53 1018.6
20260504010702 81 0.0 1.7 0.00 0.00 0.00 54 1018.8
20260504005522 81 0.0 0.9 0.00 0.00 0.00 53 1018.8
20260504004522 79 0.0 0.0 0.00 0.00 0.00 58 1018.8
20260504003522 78 0.0 0.0 0.00 0.00 0.00 60 1018.9
20260504002521 78 0.0 0.0 0.00 0.00 0.00 60 1018.9
20260504001522 76 0.0 0.0 0.00 0.00 0.00 62 1018.8
20260504000521 74 0.0 0.0 0.00 0.00 0.00 64 1018.7
20260503235522 74 0.0 0.0 0.00 0.00 0.00 67 1018.7
20260503234522 72 0.0 0.0 0.00 0.00 0.00 72 1018.7
20260503233521 70 0.0 0.0 0.00 0.00 0.00 76 1018.7
20260503232521 67 0.0 0.0 0.00 0.00 0.00 84 1018.6
20260503231521 63 0.0 0.0 0.00 0.00 0.00 94 1018.7
20260503230522 61 0.0 0.0 0.00 0.00 0.00 97 1018.5
20260503225702 59 0.0 0.0 0.00 0.00 0.00 97 1018.8
20260503224521 58 0.0 0.0 0.00 0.00 0.00 97 1018.9
20260503223521 58 0.0 0.0 0.00 0.00 0.00 98 1019.0
20260503222521 58 0.0 0.0 0.00 0.00 0.00 98 1019.0
20260503221523 57 0.0 0.0 0.00 0.00 0.00 98 1019.0
20260503220521 56 0.0 0.0 0.00 0.00 0.00 98 1019.0
20260503215522 55 0.0 0.0 0.00 0.00 0.00 98 1019.0
20260503214702 54 0.0 0.0 0.00 0.00 0.00 97 1018.8
20260503213842 53 0.0 0.0 0.00 0.00 0.00 97 1018.9
20260503212521 52 0.0 0.0 0.00 0.00 0.00 97 1018.8
20260503211521 51 0.0 0.0 0.00 0.00 0.00 97 1018.7
20260503210521 51 0.0 0.0 0.00 0.00 0.00 97 1018.6